Weather History for Storm Lake, IA

Change the Weather History Date:

Thursday, July 25, 2013

  Actual Average Record
Temperature  
Mean Temperature 72 °F -  
Max Temperature 84 °F 80 °F 95 °F (2006)
Min Temperature 60 °F 63 °F 50 °F (2004)
Cooling Degree Days 7    
Growing Degree Days 22 (Base 50)    
Moisture  
Dew Point 63 °F    
Average Humidity 78    
Maximum Humidity 100    
Minimum Humidity 54    
Precipitation  
Precipitation 0.08 in - - ()
Sea Level Pressure  
Sea Level Pressure 30.00 in    
Wind  
Wind Speed 9 mph (SW)    
Max Wind Speed 21 mph    
Max Gust Speed 34 mph    
Visibility 10 miles    
Events Rain    
Averages and records for this station are not official NWS values.
T = Trace of Precipitation, MM = Missing Value Source: NWS Daily Summary

Daily Weather History Graph

Daily Weather History Graph

Search for Another Location

Airport:

Trip Planner

Search our weather history database for the weather conditions in past years. The results will help you decide how hot, cold, wet, or windy it might be!

Date:

Astronomy

Jul. 25, 2013 Rise Set
Actual Time 6:06 AM CDT 8:48 PM CDT
Civil Twilight 5:33 AM CDT 9:20 PM CDT
Nautical Twilight 4:52 AM CDT 10:01 PM CDT
Astronomical Twilight 4:05 AM CDT 10:48 PM CDT
Moon 10:22 PM CDT (7/25) 9:42 AM CDT (7/25)
Length of Visible Light 15h 47m
Length of Day
14h 42m
Waning Gibbous, 88% of the Moon is Illuminated
Jul 25
Waning Gibbous
Jul 29
Last Quarter
Aug 6
New
Aug 14
First Quarter
Aug 20
Full

Hourly Weather History & Observations

Time (CDT) Temp. Heat Index Dew Point Humidity Pressure Visibility Wind Dir Wind Speed Gust Speed Precip Events Conditions
12:15 AM 64.4 °F - 59.0 °F 83% 30.04 in 10.0 mi SSW 5.8 mph - N/A   Clear
12:35 AM 62.6 °F - 57.2 °F 82% 30.04 in 10.0 mi South 4.6 mph - N/A   Clear
12:55 AM 66.2 °F - 57.2 °F 73% 30.03 in 10.0 mi South 5.8 mph - N/A   Clear
1:15 AM 66.2 °F - 55.4 °F 68% 30.04 in 10.0 mi South 5.8 mph - N/A   Clear
1:35 AM 64.4 °F - 57.2 °F 77% 30.04 in - SSW 6.9 mph - N/A   Clear
1:55 AM 62.6 °F - 57.2 °F 82% 30.05 in 10.0 mi SSW 4.6 mph - N/A   Clear
2:15 AM 62.6 °F - 57.2 °F 82% 30.04 in 10.0 mi SSW 5.8 mph - N/A   Clear
2:35 AM 62.6 °F - 57.2 °F 82% 30.05 in 10.0 mi SW 6.9 mph - N/A   Clear
2:55 AM 62.6 °F - 57.2 °F 82% 30.05 in 10.0 mi SSW 6.9 mph - N/A   Clear
3:15 AM 62.6 °F - 57.2 °F 82% 30.04 in 10.0 mi SSW 6.9 mph - N/A   Clear
3:35 AM 60.8 °F - 57.2 °F 88% 30.03 in 10.0 mi SSW 6.9 mph - N/A   Clear
3:55 AM 60.8 °F - 57.2 °F 88% 30.03 in 10.0 mi SSW 6.9 mph - N/A   Clear
4:15 AM 60.8 °F - 57.2 °F 88% 30.02 in 10.0 mi SSW 6.9 mph - N/A   Clear
4:35 AM 60.8 °F - 57.2 °F 88% 30.02 in 10.0 mi SW 8.1 mph - N/A   Clear
4:55 AM 60.8 °F - 57.2 °F 88% 30.03 in 10.0 mi SW 8.1 mph - N/A   Clear
5:15 AM 62.6 °F - 59.0 °F 88% 30.02 in 10.0 mi SSW 9.2 mph - N/A   Clear
5:35 AM 60.8 °F - 59.0 °F 94% 30.03 in 10.0 mi SSW 8.1 mph - N/A   Clear
5:55 AM 62.6 °F - 59.0 °F 88% 30.04 in 10.0 mi SSW 8.1 mph - N/A   Clear
6:15 AM 62.6 °F - 59.0 °F 88% 30.04 in 10.0 mi SW 6.9 mph - N/A   Clear
6:35 AM 62.6 °F - 59.0 °F 88% 30.04 in 10.0 mi SSW 6.9 mph - N/A   Clear
6:55 AM 62.6 °F - 59.0 °F 88% 30.03 in 10.0 mi SSW 6.9 mph - N/A   Clear
7:15 AM 64.4 °F - 60.8 °F 88% 30.03 in 10.0 mi SSW 6.9 mph - N/A   Clear
7:35 AM 66.2 °F - 60.8 °F 83% 30.04 in 10.0 mi SSW 6.9 mph - N/A   Clear
7:55 AM 68.0 °F - 62.6 °F 83% 30.04 in 10.0 mi SSW 5.8 mph - N/A   Clear
8:15 AM 69.8 °F - 62.6 °F 78% 30.03 in 10.0 mi SSW 9.2 mph - N/A   Clear
8:35 AM 71.6 °F - 62.6 °F 73% 30.03 in 10.0 mi SSW 9.2 mph - N/A   Clear
8:55 AM 71.6 °F - 64.4 °F 78% 30.03 in 10.0 mi SSW 8.1 mph - N/A   Clear
9:15 AM 75.2 °F - 62.6 °F 65% 30.04 in 10.0 mi SW 8.1 mph - N/A   Clear
9:35 AM 75.2 °F - 64.4 °F 69% 30.03 in 10.0 mi SSW 9.2 mph - N/A   Partly Cloudy
9:55 AM 77.0 °F - 64.4 °F 65% 30.03 in 10.0 mi SSW 9.2 mph 15.0 mph N/A   Partly Cloudy
10:15 AM 77.0 °F - 64.4 °F 65% 30.02 in 10.0 mi SSW 11.5 mph - N/A   Clear
10:35 AM 77.0 °F - 64.4 °F 65% 30.02 in 10.0 mi SW 12.7 mph - N/A   Clear
10:55 AM 77.0 °F - 62.6 °F 61% 30.02 in 10.0 mi SSW 11.5 mph 18.4 mph N/A   Clear
11:15 AM 77.0 °F - 64.4 °F 65% 30.02 in 10.0 mi SSW 12.7 mph - N/A   Clear
11:35 AM 78.8 °F - 64.4 °F 61% 30.02 in 10.0 mi SSW 11.5 mph 18.4 mph N/A   Clear
11:55 AM 80.6 °F 82.3 °F 64.4 °F 58% 30.01 in 10.0 mi South 13.8 mph 19.6 mph N/A   Clear
12:15 PM 80.6 °F 82.3 °F 64.4 °F 58% 30.00 in 10.0 mi South 15.0 mph - N/A   Clear
12:35 PM 80.6 °F 82.3 °F 64.4 °F 58% 30.00 in 10.0 mi SSW 13.8 mph 20.7 mph N/A   Clear
12:55 PM 82.4 °F 83.9 °F 64.4 °F 54% 29.99 in 10.0 mi South 13.8 mph 20.7 mph N/A   Clear
1:15 PM 82.4 °F 83.9 °F 64.4 °F 54% 29.99 in 10.0 mi SSW 15.0 mph 25.3 mph N/A   Clear
1:35 PM 82.4 °F 83.9 °F 64.4 °F 54% 29.99 in 10.0 mi South 11.5 mph 21.9 mph N/A   Clear
1:55 PM 82.4 °F 84.6 °F 66.2 °F 58% 29.99 in 10.0 mi SSW 15.0 mph 21.9 mph N/A   Clear
2:15 PM 84.2 °F 86.6 °F 66.2 °F 55% 29.97 in 10.0 mi South 13.8 mph 20.7 mph N/A   Clear
2:35 PM 82.4 °F 84.6 °F 66.2 °F 58% 29.97 in 10.0 mi SSW 6.9 mph 17.3 mph N/A   Clear
2:55 PM 82.4 °F 84.6 °F 66.2 °F 58% 29.96 in 10.0 mi South 9.2 mph - N/A   Clear
3:15 PM 84.2 °F 86.6 °F 66.2 °F 55% 29.95 in 10.0 mi SW 12.7 mph - N/A   Clear
3:35 PM 84.2 °F 86.6 °F 66.2 °F 55% 29.94 in 10.0 mi SSW 15.0 mph - N/A   Scattered Clouds
3:55 PM 82.4 °F 84.6 °F 66.2 °F 58% 29.94 in 10.0 mi SW 16.1 mph 23.0 mph N/A   Partly Cloudy
4:15 PM 82.4 °F 85.4 °F 68.0 °F 62% 29.94 in 10.0 mi SW 15.0 mph 23.0 mph N/A   Scattered Clouds
4:35 PM 82.4 °F 84.6 °F 66.2 °F 58% 29.94 in 10.0 mi SW 13.8 mph - N/A   Scattered Clouds
4:55 PM 80.6 °F 82.7 °F 66.2 °F 61% 29.94 in 10.0 mi SW 18.4 mph 25.3 mph N/A   Mostly Cloudy
5:15 PM 71.6 °F - 68.0 °F 88% 29.94 in 2.5 mi SW 12.7 mph 25.3 mph N/A Rain Rain
5:35 PM 71.6 °F - 68.0 °F 88% 29.94 in 9.0 mi SSW 8.1 mph - N/A   Light Drizzle
5:55 PM 73.4 °F - 69.8 °F 88% 29.95 in 10.0 mi SW 5.8 mph - 0.03 in   Scattered Clouds
6:15 PM 73.4 °F - 69.8 °F 88% 29.94 in 10.0 mi SSW 5.8 mph - N/A   Clear
6:35 PM 73.4 °F - 69.8 °F 88% 29.93 in 9.0 mi SW 10.4 mph - N/A   Clear
6:55 PM 73.4 °F - 68.0 °F 83% 29.94 in 10.0 mi SW 9.2 mph - N/A   Scattered Clouds
7:15 PM 73.4 °F - 68.0 °F 83% 29.95 in 9.0 mi SW 11.5 mph - N/A   Mostly Cloudy
7:35 PM 69.8 °F - 66.2 °F 88% 29.97 in 4.0 mi West 20.7 mph 34.5 mph N/A Rain Light Rain
7:55 PM 68.0 °F - 64.4 °F 88% 29.94 in 8.0 mi WSW 15.0 mph 28.8 mph 0.01 in   Light Drizzle
8:15 PM 68.0 °F - 66.2 °F 94% 29.94 in 10.0 mi SW 13.8 mph 19.6 mph N/A   Clear
8:35 PM 69.8 °F - 66.2 °F 88% 29.94 in 10.0 mi WSW 12.7 mph 18.4 mph N/A   Scattered Clouds
8:55 PM 68.0 °F - 66.2 °F 94% 29.95 in 10.0 mi WSW 10.4 mph - N/A   Partly Cloudy
9:15 PM 68.0 °F - 66.2 °F 94% 29.98 in 10.0 mi North 9.2 mph - N/A   Mostly Cloudy
9:35 PM 68.0 °F - 66.2 °F 94% 29.99 in 10.0 mi NNW 5.8 mph - N/A   Overcast
9:55 PM 68.0 °F - 64.4 °F 88% 30.00 in 10.0 mi WNW 10.4 mph - N/A   Overcast
10:15 PM 68.0 °F - 66.2 °F 94% 30.00 in 8.0 mi WNW 11.5 mph - N/A Rain Light Rain
10:35 PM 66.2 °F - 66.2 °F 100% 30.00 in 8.0 mi West 15.0 mph 20.7 mph N/A   Light Drizzle
10:55 PM 66.2 °F - 66.2 °F 100% 30.00 in 5.0 mi West 11.5 mph 19.6 mph 0.01 in Rain Light Rain
11:15 PM 68.0 °F - 66.2 °F 94% 30.00 in 8.0 mi WNW 9.2 mph 15.0 mph N/A   Light Drizzle
11:35 PM 68.0 °F - 66.2 °F 94% 30.00 in 7.0 mi WNW 17.3 mph 25.3 mph N/A   Light Drizzle
11:55 PM 66.2 °F - 64.4 °F 94% 30.00 in 7.0 mi West 9.2 mph 16.1 mph 0.03 in Rain Light Rain